Location: Unspecified
(0.0000°N, 0.0000°E)
Time: 20:43:10
(UTC+00:00)

Vanguard 1 Rocket - All Passes

Search period start: 26 March 2017 00:00
Search period end: 05 April 2017 00:00
Orbit: 649 x 4228 km, 34.3° (Epoch: 24 March)

Date Brightness Start Highest point End Pass type
(mag) Time Alt. Az. Time Alt. Az. Time Alt. Az.
26 Mar - 07:09:02 10° S 07:12:24 18° SE 07:16:42 10° E daylight
26 Mar - 09:31:15 10° WSW 09:37:23 61° NNW 09:49:03 10° NE daylight
26 Mar - 11:59:13 10° WNW 12:07:26 23° NNW 12:20:15 10° NNE daylight
26 Mar - 14:32:26 10° NNW 14:44:42 19° N 15:00:13 10° NE daylight
26 Mar - 17:03:48 10° NNW 17:25:23 33° NNE 17:45:19 10° E daylight
26 Mar - 19:35:04 10° NW 20:01:21 70° NE 20:17:57 10° ESE visible
26 Mar - 22:11:05 10° WNW 22:31:45 48° SW 22:43:11 10° SSE visible
27 Mar - 08:20:56 10° SW 08:26:05 72° SE 08:35:10 10° ENE daylight
27 Mar - 10:46:39 10° WNW 10:53:37 29° NNW 11:05:23 10° NNE daylight
27 Mar - 13:18:21 10° NW 13:27:31 17° N 13:39:58 10° NE daylight
27 Mar - 15:50:12 10° NNW 16:07:42 25° NNE 16:26:58 10° ENE daylight
27 Mar - 18:20:22 10° NW 18:45:46 53° NNE 19:04:58 10° ESE visible
27 Mar - 20:53:37 10° WNW 21:18:34 73° SW 21:32:43 10° SE visible
27 Mar - 23:35:27 10° W 23:47:13 21° SW 23:55:03 10° S visible
28 Mar - 07:11:23 10° SSW 07:15:29 28° SE 07:21:10 10° E daylight
28 Mar - 09:35:05 10° W 09:40:58 41° NNW 09:51:31 10° NE daylight
28 Mar - 12:04:32 10° NW 12:11:52 18° N 12:22:24 10° NNE daylight
28 Mar - 14:36:56 10° NNW 14:49:48 19° NNE 15:05:50 10° NE daylight
28 Mar - 17:06:33 10° NW 17:29:16 39° NNE 17:50:06 10° E daylight
28 Mar - 19:37:37 10° NW 20:04:18 83° NE 20:21:20 10° SE visible
28 Mar - 22:15:04 10° WNW 22:34:31 38° SW 22:45:55 10° SSE visible
29 Mar - 08:24:16 10° WSW 08:29:22 74° NW 08:38:12 10° NE daylight
29 Mar - 10:51:27 10° WNW 10:57:43 21° NNW 11:07:20 10° NNE daylight
29 Mar - 13:23:43 10° NNW 13:32:31 16° N 13:44:00 10° NE daylight
29 Mar - 15:53:24 10° NNW 16:12:07 29° NNE 16:32:37 10° ENE daylight
29 Mar - 18:22:52 10° NW 18:48:57 63° NE 19:08:44 10° ESE visible
29 Mar - 20:56:48 10° WNW 21:21:16 60° SW 21:35:40 10° SE visible
29 Mar - 23:41:31 10° WSW 23:50:35 16° SW 23:57:12 10° S visible
30 Mar - 07:14:10 10° SW 07:18:34 47° SE 07:24:59 10° ENE daylight
30 Mar - 09:39:16 10° W 09:44:46 28° NNW 09:53:45 10° NNE daylight
30 Mar - 12:10:20 10° NNW 12:16:33 14° N 12:24:44 10° NNE daylight
30 Mar - 14:40:48 10° NNW 14:54:41 21° NNE 15:11:56 10° ENE daylight
30 Mar - 17:09:09 10° NW 17:32:47 47° NNE 17:54:29 10° E daylight
30 Mar - 19:40:22 10° NW 20:07:05 84° SW 20:24:30 10° SE visible
30 Mar - 22:19:36 10° W 22:37:27 31° SW 22:48:34 10° SSE visible
31 Mar - 06:05:02 10° S 06:07:58 17° SE 06:11:13 10° E daylight
31 Mar - 08:27:56 10° WSW 08:32:50 46° NNW 08:40:56 10° NE daylight
31 Mar - 10:56:51 10° NW 11:02:01 15° N 11:09:03 10° NNE daylight
31 Mar - 13:28:34 10° NNW 13:37:32 16° NNE 13:49:05 10° NE daylight
31 Mar - 15:56:18 10° NNW 16:16:07 34° NNE 16:37:50 10° E daylight
31 Mar - 18:25:27 10° NW 18:51:54 74° NE 19:12:13 10° ESE visible
31 Mar - 21:00:22 10° WNW 21:23:59 50° SW 21:38:30 10° SSE visible
31 Mar - 23:48:41 10° SW 23:54:16 12° SW 23:58:51 10° SSW visible
01 Apr - 07:17:18 10° SW 07:21:47 82° SE 07:28:22 10° NE daylight
01 Apr - 09:43:59 10° WNW 09:48:45 19° NNW 09:55:40 10° NNE daylight
01 Apr - 12:16:22 10° NNW 12:21:22 12° N 12:27:28 10° NNE daylight
01 Apr - 14:44:08 10° NNW 14:59:13 24° NNE 15:18:02 10° ENE daylight
01 Apr - 17:11:44 10° NW 17:35:59 56° NE 17:58:28 10° ESE daylight
01 Apr - 19:43:20 10° WNW 20:09:45 71° SW 20:27:30 10° SE visible
01 Apr - 22:24:47 10° W 22:40:38 25° SW 22:51:08 10° SSE visible
02 Apr - 06:07:21 10° SSW 06:11:13 29° SE 06:15:39 10° E daylight
02 Apr - 08:31:58 10° W 08:36:30 29° NNW 08:43:20 10° NNE daylight
02 Apr - 11:03:24 10° NNW 11:06:29 11° N 11:10:07 10° NNE daylight
02 Apr - 13:32:38 10° NNW 13:42:25 17° NNE 13:55:06 10° NE daylight
02 Apr - 15:59:01 10° NNW 16:19:41 40° NNE 16:42:35 10° E daylight
02 Apr - 18:28:08 10° NW 18:54:39 86° NE 19:15:28 10° SE visible
02 Apr - 21:04:23 10° WNW 21:26:48 41° SW 21:41:14 10° SSE visible
03 Apr - 04:59:00 10° SSE 05:00:13 11° SSE 05:01:25 10° SE visible
03 Apr - 07:20:46 10° WSW 07:25:09 57° NNW 07:31:24 10° NE daylight
03 Apr - 09:49:37 10° NW 09:52:53 13° NNW 09:56:57 10° NNE daylight
03 Apr - 12:22:03 10° N 12:26:15 11° N 12:31:10 10° NNE daylight
03 Apr - 14:47:09 10° NNW 15:03:20 28° NNE 15:23:47 10° E daylight
03 Apr - 17:14:21 10° NW 17:38:55 66° NE 18:02:07 10° ESE daylight
03 Apr - 19:46:38 10° WNW 20:12:25 60° SW 20:30:21 10° SE visible
03 Apr - 22:30:40 10° WSW 22:44:09 20° SW 22:53:38 10° S visible
04 Apr - 06:10:11 10° SW 06:14:28 54° SE 06:19:27 10° ENE daylight
04 Apr - 08:36:35 10° WNW 08:40:19 18° NNW 08:45:20 10° NNE daylight
04 Apr - 13:36:04 10° NNW 13:47:02 19° NNE 14:01:33 10° ENE daylight
04 Apr - 16:01:41 10° NW 16:22:56 48° NE 16:46:53 10° ESE daylight
04 Apr - 18:31:01 10° NW 18:57:19 82° SW 19:18:30 10° SE visible
04 Apr - 21:08:57 10° W 21:29:51 34° SW 21:43:55 10° SSE visible
